Tracking 19638 objects as of 19-May-2019
HD Live streaming from Space Station
objects crossing your sky now

THORAD DELTA 1 DEB

Track THORAD DELTA 1 DEB now!
10-day predictions


NORAD ID: 8184
Int'l Code: 1974-089BA
Perigee: 1,431.6 km
Apogee: 1,532.7 km
Inclination: 101.5 °
Period: 115.4 minutes
Semi major axis: 7853 km
RCS: 0.8469 m2 (medium)
Launch date: November 15, 1974
Source: United States (US)
Launch site: AIR FORCE WESTERN TEST RANGE (AFWTR)

Note: This is SATELLITE DEBRIS
aabbcc
Your satellite tracking list
Your tracking list is empty




NASA's NSSDC Master Catalog

Two Line Element Set (TLE):
1  8184U 74089BA  19138.76929274 -.00000051  00000-0 -60419-4 0  9999
2  8184 101.4874 183.7505 0064414  72.8672  40.6469 12.47493466 26629
Source of the keplerian elements: AFSPC